Time,TemperatureF,DewpointF,PressureIn,WindDirection,WindDirectionDegrees,WindSpeedMPH,WindSpeedGustMPH,Humidity,HourlyPrecipIn,Conditions,Clouds,dailyrainin,SoftwareType,DateUTC
2013-06-02 00:02:00,56.0,50.0,30.12,SW,229,0.0,1.0,80,0.00,,,0.00,,2013-06-02 05:02:00,
2013-06-02 00:12:00,56.0,50.0,30.12,SW,229,0.0,1.0,80,0.00,,,0.00,,2013-06-02 05:12:00,
2013-06-02 00:22:00,55.0,49.0,30.12,WSW,245,0.0,2.0,81,0.00,,,0.00,,2013-06-02 05:22:00,
2013-06-02 00:32:00,55.0,50.0,30.12,NW,313,0.0,1.0,82,0.00,,,0.00,,2013-06-02 05:32:00,
2013-06-02 00:42:00,55.0,50.0,30.12,NW,313,0.0,1.0,82,0.00,,,0.00,,2013-06-02 05:42:00,
2013-06-02 00:52:00,56.0,50.0,30.12,NNW,329,5.0,11.0,80,0.00,,,0.00,,2013-06-02 05:52:00,
2013-06-02 01:01:00,56.0,50.0,30.13,NW,306,5.0,9.0,80,0.00,,,0.00,,2013-06-02 06:01:00,
2013-06-02 01:12:00,56.0,50.0,30.13,NW,306,5.0,9.0,80,0.00,,,0.00,,2013-06-02 06:12:00,
2013-06-02 01:21:00,56.0,50.0,30.13,NW,306,5.0,9.0,80,0.00,,,0.00,,2013-06-02 06:21:00,
2013-06-02 01:32:00,56.0,50.0,30.13,NW,306,5.0,9.0,80,0.00,,,0.00,,2013-06-02 06:32:00,
2013-06-02 01:42:00,56.0,50.0,30.13,NW,306,5.0,9.0,80,0.00,,,0.00,,2013-06-02 06:42:00,
2013-06-02 01:52:00,55.0,50.0,30.14,WNW,300,0.0,6.0,82,0.00,,,0.00,,2013-06-02 06:52:00,
2013-06-02 02:01:00,54.0,49.0,30.14,NW,314,3.0,6.0,83,0.00,,,0.00,,2013-06-02 07:01:00,
2013-06-02 02:11:00,54.0,49.0,30.14,NW,314,3.0,6.0,83,0.00,,,0.00,,2013-06-02 07:11:00,
2013-06-02 02:21:00,54.0,49.0,30.14,NW,314,3.0,6.0,83,0.00,,,0.00,,2013-06-02 07:21:00,
2013-06-02 02:31:00,53.0,48.0,30.16,NW,311,0.0,5.0,84,0.00,,,0.00,,2013-06-02 07:31:00,
2013-06-02 02:42:00,53.0,49.0,30.15,NW,316,1.0,5.0,85,0.00,,,0.00,,2013-06-02 07:42:00,
2013-06-02 02:52:00,53.0,49.0,30.15,NW,316,1.0,5.0,85,0.00,,,0.00,,2013-06-02 07:52:00,
2013-06-02 03:01:00,53.0,49.0,30.15,NW,316,1.0,5.0,85,0.00,,,0.00,,2013-06-02 08:01:00,
2013-06-02 03:11:00,53.0,49.0,30.15,NW,316,1.0,5.0,85,0.00,,,0.00,,2013-06-02 08:11:00,
2013-06-02 03:21:00,53.0,49.0,30.15,NW,316,1.0,5.0,85,0.00,,,0.00,,2013-06-02 08:21:00,
2013-06-02 03:31:00,53.0,48.0,30.15,North,349,0.0,5.0,82,0.00,,,0.00,,2013-06-02 08:31:00,
2013-06-02 03:42:00,53.0,48.0,30.15,North,349,0.0,5.0,82,0.00,,,0.00,,2013-06-02 08:42:00,
2013-06-02 03:52:00,53.0,48.0,30.15,North,349,0.0,5.0,82,0.00,,,0.00,,2013-06-02 08:52:00,
2013-06-02 04:01:00,53.0,48.0,30.15,North,349,0.0,5.0,82,0.00,,,0.00,,2013-06-02 09:01:00,
2013-06-02 04:11:00,53.0,48.0,30.15,North,349,0.0,5.0,82,0.00,,,0.00,,2013-06-02 09:11:00,
2013-06-02 04:33:00,52.0,48.0,30.15,North,353,0.0,4.0,85,0.00,,,0.00,,2013-06-02 09:33:00,
2013-06-02 04:43:00,52.0,48.0,30.15,North,353,0.0,4.0,85,0.00,,,0.00,,2013-06-02 09:43:00,
2013-06-02 04:53:00,52.0,48.0,30.15,North,353,0.0,4.0,85,0.00,,,0.00,,2013-06-02 09:53:00,
2013-06-02 05:02:00,51.0,47.0,30.16,NW,312,0.0,0.0,87,0.00,,,0.00,,2013-06-02 10:02:00,
2013-06-02 05:12:00,51.0,47.0,30.16,NW,312,0.0,0.0,87,0.00,,,0.00,,2013-06-02 10:12:00,
2013-06-02 05:22:00,51.0,47.0,30.16,NW,312,0.0,0.0,87,0.00,,,0.00,,2013-06-02 10:22:00,
2013-06-02 05:32:00,50.0,47.0,30.16,NW,314,0.0,1.0,88,0.00,,,0.00,,2013-06-02 10:32:00,
2013-06-02 05:42:00,50.0,47.0,30.16,NW,314,0.0,1.0,88,0.00,,,0.00,,2013-06-02 10:42:00,
2013-06-02 05:52:00,50.0,47.0,30.16,WNW,293,2.0,4.0,88,0.00,,,0.00,,2013-06-02 10:52:00,
2013-06-02 06:02:00,50.0,47.0,30.16,WNW,293,2.0,4.0,88,0.00,,,0.00,,2013-06-02 11:02:00,
2013-06-02 06:12:00,50.0,47.0,30.16,WNW,293,2.0,4.0,88,0.00,,,0.00,,2013-06-02 11:12:00,
2013-06-02 06:21:00,50.0,47.0,30.17,NW,311,0.0,1.0,89,0.00,,,0.00,,2013-06-02 11:21:00,
2013-06-02 06:32:00,49.0,46.0,30.17,NW,305,0.0,1.0,89,0.00,,,0.00,,2013-06-02 11:32:00,
2013-06-02 06:42:00,49.0,46.0,30.17,NW,305,0.0,1.0,89,0.00,,,0.00,,2013-06-02 11:42:00,
2013-06-02 06:52:00,50.0,47.0,30.18,WNW,301,3.0,4.0,89,0.00,,,0.00,,2013-06-02 11:52:00,
2013-06-02 07:01:00,51.0,47.0,30.19,NW,311,4.0,5.0,87,0.00,,,0.00,,2013-06-02 12:01:00,
2013-06-02 07:11:00,51.0,47.0,30.19,NW,311,4.0,5.0,87,0.00,,,0.00,,2013-06-02 12:11:00,
2013-06-02 07:21:00,51.0,47.0,30.19,NW,308,3.0,5.0,86,0.00,,,0.00,,2013-06-02 12:21:00,
2013-06-02 07:31:00,51.0,47.0,30.19,NW,308,3.0,5.0,86,0.00,,,0.00,,2013-06-02 12:31:00,
2013-06-02 07:42:00,51.0,47.0,30.19,NW,308,3.0,5.0,86,0.00,,,0.00,,2013-06-02 12:42:00,
2013-06-02 07:52:00,52.0,48.0,30.19,NNW,329,4.0,8.0,85,0.00,,,0.00,,2013-06-02 12:52:00,
2013-06-02 08:01:00,53.0,48.0,30.20,NW,307,2.0,8.0,83,0.00,,,0.00,,2013-06-02 13:01:00,
2013-06-02 08:11:00,53.0,48.0,30.20,NW,307,2.0,8.0,83,0.00,,,0.00,,2013-06-02 13:11:00,
2013-06-02 08:21:00,53.0,48.0,30.20,NW,307,2.0,8.0,83,0.00,,,0.00,,2013-06-02 13:21:00,
2013-06-02 08:32:00,55.0,49.0,30.20,NW,311,4.0,8.0,80,0.00,,,0.00,,2013-06-02 13:32:00,
2013-06-02 08:42:00,55.0,49.0,30.20,NW,311,4.0,8.0,80,0.00,,,0.00,,2013-06-02 13:42:00,
2013-06-02 08:52:00,55.0,49.0,30.21,WNW,299,3.0,9.0,79,0.00,,,0.00,,2013-06-02 13:52:00,
2013-06-02 09:02:00,55.0,49.0,30.21,WNW,299,3.0,9.0,79,0.00,,,0.00,,2013-06-02 14:02:00,
2013-06-02 09:11:00,57.0,48.0,30.20,NNE,26,8.0,10.0,72,0.00,,,0.00,,2013-06-02 14:11:00,
2013-06-02 09:21:00,57.0,48.0,30.20,NNE,26,8.0,10.0,72,0.00,,,0.00,,2013-06-02 14:21:00,
2013-06-02 09:32:00,57.0,48.0,30.20,NNE,26,8.0,10.0,72,0.00,,,0.00,,2013-06-02 14:32:00,
2013-06-02 09:42:00,57.0,48.0,30.20,NNE,26,8.0,10.0,72,0.00,,,0.00,,2013-06-02 14:42:00,
2013-06-02 09:52:00,58.0,46.0,30.20,NNE,32,3.0,11.0,64,0.00,,,0.00,,2013-06-02 14:52:00,
2013-06-02 10:01:00,58.0,46.0,30.20,NNE,32,3.0,11.0,64,0.00,,,0.00,,2013-06-02 15:01:00,
2013-06-02 10:11:00,58.0,46.0,30.20,NNE,32,3.0,11.0,64,0.00,,,0.00,,2013-06-02 15:11:00,
2013-06-02 10:21:00,58.0,46.0,30.20,NNE,32,3.0,11.0,64,0.00,,,0.00,,2013-06-02 15:21:00,
2013-06-02 10:32:00,60.0,47.0,30.19,ENE,71,2.0,11.0,62,0.00,,,0.00,,2013-06-02 15:32:00,
2013-06-02 10:43:00,60.0,47.0,30.19,ENE,71,2.0,11.0,62,0.00,,,0.00,,2013-06-02 15:43:00,
2013-06-02 10:53:00,60.0,47.0,30.19,ENE,71,2.0,11.0,62,0.00,,,0.00,,2013-06-02 15:53:00,
2013-06-02 11:03:00,61.0,47.0,30.19,NW,304,4.0,13.0,60,0.00,,,0.00,,2013-06-02 16:03:00,
2013-06-02 11:13:00,61.0,47.0,30.19,NW,304,4.0,13.0,60,0.00,,,0.00,,2013-06-02 16:13:00,
2013-06-02 11:23:00,61.0,47.0,30.19,NW,304,4.0,13.0,60,0.00,,,0.00,,2013-06-02 16:23:00,
2013-06-02 11:33:00,63.0,47.0,30.19,NNW,346,4.0,10.0,55,0.00,,,0.00,,2013-06-02 16:33:00,
2013-06-02 11:42:00,63.0,47.0,30.19,NNW,346,4.0,10.0,55,0.00,,,0.00,,2013-06-02 16:42:00,
2013-06-02 11:53:00,64.0,47.0,30.20,ESE,113,7.0,9.0,55,0.00,,,0.00,,2013-06-02 16:53:00,
2013-06-02 12:02:00,63.0,47.0,30.19,ENE,59,2.0,13.0,55,0.00,,,0.00,,2013-06-02 17:02:00,
2013-06-02 12:12:00,63.0,47.0,30.19,ENE,59,2.0,13.0,55,0.00,,,0.00,,2013-06-02 17:12:00,
2013-06-02 12:22:00,64.0,47.0,30.19,East,90,2.0,11.0,55,0.00,,,0.00,,2013-06-02 17:22:00,
2013-06-02 12:32:00,65.0,47.0,30.19,NNE,33,5.0,11.0,53,0.00,,,0.00,,2013-06-02 17:32:00,
2013-06-02 12:42:00,66.0,48.0,30.20,NW,319,0.0,8.0,52,0.00,,,0.00,,2013-06-02 17:42:00,
2013-06-02 12:52:00,66.0,48.0,30.20,NW,319,0.0,8.0,52,0.00,,,0.00,,2013-06-02 17:52:00,
2013-06-02 13:01:00,66.0,48.0,30.20,NW,319,0.0,8.0,52,0.00,,,0.00,,2013-06-02 18:01:00,
2013-06-02 13:11:00,66.0,48.0,30.20,NW,319,0.0,8.0,52,0.00,,,0.00,,2013-06-02 18:11:00,
2013-06-02 13:21:00,66.0,48.0,30.20,NW,319,0.0,8.0,52,0.00,,,0.00,,2013-06-02 18:21:00,
2013-06-02 13:32:00,67.0,47.0,30.18,ENE,70,6.0,8.0,48,0.00,,,0.00,,2013-06-02 18:32:00,
2013-06-02 13:42:00,68.0,47.0,30.18,WNW,284,0.0,6.0,47,0.00,,,0.00,,2013-06-02 18:42:00,
2013-06-02 13:52:00,68.0,47.0,30.18,WNW,284,0.0,6.0,47,0.00,,,0.00,,2013-06-02 18:52:00,
2013-06-02 14:01:00,68.0,47.0,30.18,WNW,284,0.0,6.0,47,0.00,,,0.00,,2013-06-02 19:01:00,
2013-06-02 14:11:00,68.0,47.0,30.18,WNW,284,0.0,6.0,47,0.00,,,0.00,,2013-06-02 19:11:00,
2013-06-02 14:21:00,70.0,46.0,30.17,NW,319,2.0,5.0,43,0.00,,,0.00,,2013-06-02 19:21:00,
2013-06-02 14:32:00,69.0,47.0,30.16,WNW,303,2.0,8.0,45,0.00,,,0.00,,2013-06-02 19:32:00,
2013-06-02 14:42:00,69.0,47.0,30.16,WNW,303,2.0,8.0,45,0.00,,,0.00,,2013-06-02 19:42:00,
2013-06-02 14:52:00,69.0,47.0,30.16,WNW,303,2.0,8.0,45,0.00,,,0.00,,2013-06-02 19:52:00,
2013-06-02 15:02:00,70.0,48.0,30.15,East,81,4.0,10.0,45,0.00,,,0.00,,2013-06-02 20:02:00,
2013-06-02 15:11:00,70.0,48.0,30.15,East,81,4.0,10.0,45,0.00,,,0.00,,2013-06-02 20:11:00,
2013-06-02 15:22:00,71.0,47.0,30.14,NNE,33,2.0,7.0,42,0.00,,,0.00,,2013-06-02 20:22:00,
2013-06-02 15:32:00,71.0,46.0,30.14,ENE,63,1.0,6.0,41,0.00,,,0.00,,2013-06-02 20:32:00,
2013-06-02 15:42:00,71.0,46.0,30.14,ENE,63,1.0,6.0,41,0.00,,,0.00,,2013-06-02 20:42:00,
2013-06-02 15:52:00,71.0,46.0,30.14,ENE,63,1.0,6.0,41,0.00,,,0.00,,2013-06-02 20:52:00,
2013-06-02 16:01:00,72.0,46.0,30.12,NE,55,5.0,7.0,40,0.00,,,0.00,,2013-06-02 21:01:00,
2013-06-02 16:11:00,72.0,46.0,30.12,NE,55,5.0,7.0,40,0.00,,,0.00,,2013-06-02 21:11:00,
2013-06-02 16:21:00,72.0,46.0,30.12,NE,55,5.0,7.0,40,0.00,,,0.00,,2013-06-02 21:21:00,
2013-06-02 16:33:00,72.0,46.0,30.11,ENE,60,4.0,8.0,39,0.00,,,0.00,,2013-06-02 21:33:00,
2013-06-02 16:42:00,72.0,46.0,30.11,ENE,60,4.0,8.0,39,0.00,,,0.00,,2013-06-02 21:42:00,
2013-06-02 16:53:00,72.0,46.0,30.11,ENE,60,4.0,8.0,39,0.00,,,0.00,,2013-06-02 21:53:00,
2013-06-02 17:03:00,72.0,46.0,30.10,ENE,67,2.0,8.0,40,0.00,,,0.00,,2013-06-02 22:03:00,
2013-06-02 17:12:00,72.0,46.0,30.10,ENE,67,2.0,8.0,40,0.00,,,0.00,,2013-06-02 22:12:00,
2013-06-02 17:23:00,73.0,47.0,30.09,ESE,119,2.0,7.0,40,0.00,,,0.00,,2013-06-02 22:23:00,
2013-06-02 17:33:00,73.0,49.0,30.08,ESE,102,0.0,7.0,42,0.00,,,0.00,,2013-06-02 22:33:00,
2013-06-02 17:42:00,73.0,49.0,30.08,ESE,102,0.0,7.0,42,0.00,,,0.00,,2013-06-02 22:42:00,
2013-06-02 17:52:00,73.0,49.0,30.08,ESE,102,0.0,7.0,42,0.00,,,0.00,,2013-06-02 22:52:00,
2013-06-02 18:02:00,73.0,47.0,30.07,ENE,66,2.0,9.0,39,0.00,,,0.00,,2013-06-02 23:02:00,
2013-06-02 18:12:00,73.0,47.0,30.07,ENE,66,2.0,9.0,39,0.00,,,0.00,,2013-06-02 23:12:00,
2013-06-02 18:22:00,72.0,46.0,30.07,NE,39,3.0,7.0,40,0.00,,,0.00,,2013-06-02 23:22:00,
2013-06-02 18:32:00,72.0,46.0,30.06,East,91,0.0,6.0,39,0.00,,,0.00,,2013-06-02 23:32:00,
2013-06-02 18:42:00,72.0,46.0,30.06,East,91,0.0,6.0,39,0.00,,,0.00,,2013-06-02 23:42:00,
2013-06-02 18:52:00,73.0,48.0,30.06,East,98,2.0,6.0,41,0.00,,,0.00,,2013-06-02 23:52:00,
2013-06-02 19:01:00,73.0,48.0,30.06,ENE,76,3.0,6.0,41,0.00,,,0.00,,2013-06-03 00:01:00,
2013-06-02 19:11:00,73.0,48.0,30.06,ESE,113,3.0,7.0,41,0.00,,,0.00,,2013-06-03 00:11:00,
2013-06-02 19:21:00,73.0,48.0,30.06,ESE,113,3.0,7.0,41,0.00,,,0.00,,2013-06-03 00:21:00,
2013-06-02 19:32:00,73.0,48.0,30.06,ESE,113,3.0,7.0,41,0.00,,,0.00,,2013-06-03 00:32:00,
2013-06-02 19:42:00,72.0,47.0,30.06,SE,131,5.0,8.0,41,0.00,,,0.00,,2013-06-03 00:42:00,
2013-06-02 19:52:00,72.0,47.0,30.06,SE,131,5.0,8.0,41,0.00,,,0.00,,2013-06-03 00:52:00,
2013-06-02 20:01:00,72.0,47.0,30.06,East,81,1.0,5.0,41,0.00,,,0.00,,2013-06-03 01:01:00,
2013-06-02 20:11:00,72.0,47.0,30.06,East,81,1.0,5.0,41,0.00,,,0.00,,2013-06-03 01:11:00,
2013-06-02 20:21:00,71.0,47.0,30.07,SW,229,0.0,5.0,42,0.00,,,0.00,,2013-06-03 01:21:00,
2013-06-02 20:32:00,71.0,47.0,30.07,SW,229,0.0,5.0,42,0.00,,,0.00,,2013-06-03 01:32:00,
2013-06-02 20:42:00,71.0,47.0,30.07,SW,229,0.0,5.0,42,0.00,,,0.00,,2013-06-03 01:42:00,
2013-06-02 20:52:00,71.0,47.0,30.07,SW,229,0.0,5.0,42,0.00,,,0.00,,2013-06-03 01:52:00,
2013-06-02 21:02:00,69.0,47.0,30.07,SE,140,0.0,4.0,46,0.00,,,0.00,,2013-06-03 02:02:00,
2013-06-02 21:12:00,69.0,47.0,30.07,SE,140,0.0,4.0,46,0.00,,,0.00,,2013-06-03 02:12:00,
2013-06-02 21:22:00,68.0,48.0,30.07,SE,130,0.0,3.0,49,0.00,,,0.00,,2013-06-03 02:22:00,
2013-06-02 21:32:00,67.0,49.0,30.07,ESE,120,1.0,2.0,52,0.00,,,0.00,,2013-06-03 02:32:00,
2013-06-02 21:42:00,67.0,49.0,30.07,ESE,120,1.0,2.0,52,0.00,,,0.00,,2013-06-03 02:42:00,
2013-06-02 21:52:00,67.0,50.0,30.07,SE,128,1.0,1.0,54,0.00,,,0.00,,2013-06-03 02:52:00,
2013-06-02 22:02:00,67.0,50.0,30.07,SE,128,1.0,1.0,54,0.00,,,0.00,,2013-06-03 03:02:00,
2013-06-02 22:12:00,65.0,48.0,30.07,ESE,110,1.0,3.0,54,0.00,,,0.00,,2013-06-03 03:12:00,
2013-06-02 22:22:00,65.0,48.0,30.07,ESE,110,1.0,3.0,54,0.00,,,0.00,,2013-06-03 03:22:00,
2013-06-02 22:33:00,65.0,49.0,30.07,SE,138,2.0,4.0,57,0.00,,,0.00,,2013-06-03 03:33:00,
2013-06-02 22:43:00,65.0,49.0,30.07,SE,138,2.0,4.0,57,0.00,,,0.00,,2013-06-03 03:43:00,
2013-06-02 22:53:00,64.0,49.0,30.07,SE,146,1.0,4.0,59,0.00,,,0.00,,2013-06-03 03:53:00,
2013-06-02 23:03:00,64.0,49.0,30.07,SE,146,1.0,4.0,59,0.00,,,0.00,,2013-06-03 04:03:00,
2013-06-02 23:12:00,64.0,49.0,30.07,SE,146,1.0,4.0,59,0.00,,,0.00,,2013-06-03 04:12:00,
2013-06-02 23:23:00,63.0,48.0,30.06,SSE,148,0.0,4.0,58,0.00,,,0.00,,2013-06-03 04:23:00,
2013-06-02 23:33:00,63.0,47.0,30.05,SE,142,1.0,4.0,56,0.00,,,0.00,,2013-06-03 04:33:00,
2013-06-02 23:42:00,63.0,47.0,30.05,SE,142,1.0,4.0,56,0.00,,,0.00,,2013-06-03 04:42:00,
2013-06-02 23:53:00,63.0,47.0,30.05,SSE,153,2.0,4.0,55,0.00,,,0.00,,2013-06-03 04:53:00,